Location: Copeville
(33.0796°N, 96.4155°W)
Time: 10:20:01
(UTC+00:00)

Max Valier Satellite - Pass Details

Date: 29 March 2023
Orbit: 443 x 457 km, 97.2° (Epoch: 10 June)

Event Time Altitude Azimuth Distance (km) Brightness Sun altitude
Exits shadow 02:13:32 18° 188° (S) 1,145 ? -19.4°
Maximum altitude 02:15:47 53° 260° (W) 552 ? -19.9°
Drops below altitude 10° 02:19:04 10° 339° (NNW) 1,569 ? -20.5°
Sets 02:21:09 0° 344° (NNW) 2,446 ? -20.9°
